Location: 22
(39.7117°N, 89.5929°W)
Time: 08:38:52
(UTC-05:00)

S-56A Canister/Altair - Pass Details

Date: 09 February 2023
Orbit: 638 x 2493 km, 38.9° (Epoch: 25 March)

Event Time Altitude Azimuth Distance (km) Brightness Sun altitude
Rises 08:20:27 0° 229° (SW) 3,299 10.6 13.5°
Reaches altitude 10° 08:23:17 10° 220° (SW) 2,206 9.9 13.9°
Maximum altitude 08:27:38 33° 156° (SSE) 1,086 9.4 14.6°
Drops below altitude 10° 08:31:39 10° 91° (E) 2,024 10.8 15.3°
Sets 08:34:08 0° 82° (E) 2,982 11.3 15.6°
